Wetterdaten: Freitag, 26.07.2013
Datum Zeit Temperatur Luftfeuchte Luftdruck Regen Wind Richtung Richtung Taupunkt Windchill Windben
26.07.2013 00:00 18,1 C 76 % 1022,0 hPa 0,0 l/m 0,0 km/h (0 Bft) O-NO 67 13,8 C 17,9 C 0,0 km/h (0 Bft)
26.07.2013 00:05 18,2 C 76 % 1022,1 hPa 0,0 l/m 0,3 km/h (0 Bft) O-NO 67 13,9 C 17,8 C 2,3 km/h (1 Bft)
26.07.2013 00:10 18,1 C 76 % 1022,1 hPa 0,0 l/m 1,4 km/h (1 Bft) O 90 13,8 C 17,8 C 1,9 km/h (1 Bft)
26.07.2013 00:15 18,1 C 77 % 1022,1 hPa 0,0 l/m 2,1 km/h (1 Bft) O 90 14,0 C 17,7 C 2,3 km/h (1 Bft)
26.07.2013 00:20 18,0 C 77 % 1022,1 hPa 0,0 l/m 1,9 km/h (1 Bft) O 90 13,9 C 17,7 C 3,2 km/h (1 Bft)
26.07.2013 00:25 17,8 C 78 % 1022,1 hPa 0,0 l/m 1,6 km/h (1 Bft) O-NO 67 13,9 C 17,6 C 2,6 km/h (1 Bft)
26.07.2013 00:30 17,8 C 77 % 1022,1 hPa 0,0 l/m 1,3 km/h (1 Bft) O 90 13,7 C 17,5 C 2,1 km/h (1 Bft)
26.07.2013 00:35 17,7 C 77 % 1022,1 hPa 0,0 l/m 1,4 km/h (1 Bft) O 90 13,6 C 17,5 C 1,8 km/h (1 Bft)
26.07.2013 00:40 17,6 C 78 % 1022,1 hPa 0,0 l/m 1,3 km/h (1 Bft) O-NO 67 13,7 C 17,4 C 0,0 km/h (0 Bft)
26.07.2013 00:45 17,5 C 78 % 1022,2 hPa 0,0 l/m 1,3 km/h (1 Bft) NO 45 13,6 C 17,2 C 1,9 km/h (1 Bft)
26.07.2013 00:50 17,5 C 78 % 1022,2 hPa 0,0 l/m 1,3 km/h (1 Bft) O-NO 67 13,6 C 17,2 C 3,4 km/h (1 Bft)
26.07.2013 00:55 17,4 C 78 % 1022,2 hPa 0,0 l/m 1,0 km/h (0 Bft) NO 45 13,5 C 17,2 C 0,0 km/h (0 Bft)
26.07.2013 01:00 17,3 C 79 % 1022,2 hPa 0,0 l/m 0,6 km/h (0 Bft) N-NO 22 13,6 C 17,2 C 0,0 km/h (0 Bft)
26.07.2013 01:05 17,4 C 79 % 1022,1 hPa 0,0 l/m 0,5 km/h (0 Bft) N-NO 22 13,7 C 17,4 C 0,0 km/h (0 Bft)
26.07.2013 01:10 17,7 C 79 % 1022,1 hPa 0,0 l/m 0,2 km/h (0 Bft) O-NO 67 14,0 C 17,5 C 0,0 km/h (0 Bft)
26.07.2013 01:15 18,0 C 78 % 1022,1 hPa 0,0 l/m 0,2 km/h (0 Bft) O-NO 67 14,1 C 17,6 C 0,0 km/h (0 Bft)
26.07.2013 01:20 18,0 C 78 % 1022,1 hPa 0,0 l/m 0,2 km/h (0 Bft) O-NO 67 14,1 C 17,7 C 0,0 km/h (0 Bft)
26.07.2013 01:25 17,8 C 78 % 1022,1 hPa 0,0 l/m 0,2 km/h (0 Bft) N-NO 22 13,9 C 17,7 C 0,0 km/h (0 Bft)
26.07.2013 01:30 17,5 C 78 % 1022,1 hPa 0,0 l/m 0,2 km/h (0 Bft) O 90 13,6 C 17,6 C 0,0 km/h (0 Bft)
26.07.2013 01:35 17,4 C 78 % 1022,1 hPa 0,0 l/m 0,2 km/h (0 Bft) O-NO 67 13,5 C 17,4 C 0,0 km/h (0 Bft)
26.07.2013 01:40 17,2 C 78 % 1022,1 hPa 0,0 l/m 0,0 km/h (0 Bft) NO 45 13,3 C 17,1 C 0,0 km/h (0 Bft)
26.07.2013 01:45 17,0 C 78 % 1022,0 hPa 0,0 l/m 0,0 km/h (0 Bft) NO 45 13,1 C 16,9 C 0,0 km/h (0 Bft)
26.07.2013 01:50 16,7 C 79 % 1022,0 hPa 0,0 l/m 0,0 km/h (0 Bft) O 90 13,0 C 16,6 C 0,0 km/h (0 Bft)
26.07.2013 01:55 16,7 C 79 % 1022,0 hPa 0,0 l/m 0,0 km/h (0 Bft) O 90 13,0 C 16,4 C 0,0 km/h (0 Bft)
26.07.2013 02:00 16,4 C 79 % 1022,0 hPa 0,0 l/m 0,0 km/h (0 Bft) O 90 12,7 C 16,1 C 0,0 km/h (0 Bft)
26.07.2013 02:05 16,2 C 80 % 1022,0 hPa 0,0 l/m 0,0 km/h (0 Bft) O 90 12,7 C 15,9 C 0,0 km/h (0 Bft)
26.07.2013 02:10 16,5 C 80 % 1022,0 hPa 0,0 l/m 0,6 km/h (0 Bft) NO 45 13,0 C 15,9 C 2,3 km/h (1 Bft)
26.07.2013 02:15 16,6 C 80 % 1022,0 hPa 0,0 l/m 0,8 km/h (0 Bft) O-NO 67 13,1 C 16,0 C 0,0 km/h (0 Bft)
26.07.2013 02:20 16,3 C 80 % 1022,0 hPa 0,0 l/m 0,5 km/h (0 Bft) O 90 12,8 C 16,0 C 0,0 km/h (0 Bft)
26.07.2013 02:25 16,0 C 80 % 1022,1 hPa 0,0 l/m 0,0 km/h (0 Bft) O 90 12,5 C 15,8 C 0,0 km/h (0 Bft)
26.07.2013 02:30 16,0 C 80 % 1022,1 hPa 0,0 l/m 0,0 km/h (0 Bft) NO 45 12,5 C 15,7 C 0,0 km/h (0 Bft)
26.07.2013 02:35 16,1 C 80 % 1022,1 hPa 0,0 l/m 0,0 km/h (0 Bft) N 360 12,6 C 15,6 C 0,0 km/h (0 Bft)
26.07.2013 02:40 15,8 C 82 % 1022,1 hPa 0,0 l/m 0,0 km/h (0 Bft) O 90 12,7 C 15,5 C 0,0 km/h (0 Bft)
26.07.2013 02:45 16,0 C 81 % 1021,9 hPa 0,0 l/m 0,2 km/h (0 Bft) O-NO 67 12,7 C 15,5 C 0,0 km/h (0 Bft)
26.07.2013 02:50 15,9 C 82 % 1021,9 hPa 0,0 l/m 0,3 km/h (0 Bft) O 90 12,8 C 15,6 C 1,6 km/h (1 Bft)
26.07.2013 02:55 15,9 C 82 % 1021,9 hPa 0,0 l/m 0,2 km/h (0 Bft) O 90 12,8 C 15,7 C 0,0 km/h (0 Bft)
26.07.2013 03:00 15,6 C 82 % 1021,9 hPa 0,0 l/m 0,5 km/h (0 Bft) O-NO 67 12,5 C 15,6 C 3,9 km/h (1 Bft)
26.07.2013 03:05 15,7 C 83 % 1021,9 hPa 0,0 l/m 0,5 km/h (0 Bft) O-NO 67 12,8 C 15,5 C 0,0 km/h (0 Bft)
26.07.2013 03:10 15,6 C 83 % 1021,9 hPa 0,0 l/m 0,5 km/h (0 Bft) O-NO 67 12,7 C 15,4 C 0,0 km/h (0 Bft)
26.07.2013 03:15 15,6 C 83 % 1021,9 hPa 0,0 l/m 0,3 km/h (0 Bft) O 90 12,7 C 15,4 C 1,6 km/h (1 Bft)
26.07.2013 03:20 15,4 C 83 % 1021,9 hPa 0,0 l/m 0,3 km/h (0 Bft) O-NO 67 12,5 C 15,4 C 1,8 km/h (1 Bft)
26.07.2013 03:25 15,3 C 84 % 1021,8 hPa 0,0 l/m 0,3 km/h (0 Bft) NO 45 12,6 C 15,3 C 0,0 km/h (0 Bft)
26.07.2013 03:30 15,3 C 84 % 1021,8 hPa 0,0 l/m 0,2 km/h (0 Bft) N 360 12,6 C 15,1 C 0,0 km/h (0 Bft)
26.07.2013 03:35 15,3 C 84 % 1021,8 hPa 0,0 l/m 0,2 km/h (0 Bft) O-NO 67 12,6 C 15,0 C 1,8 km/h (1 Bft)
26.07.2013 03:40 15,2 C 84 % 1021,8 hPa 0,0 l/m 0,3 km/h (0 Bft) NO 45 12,5 C 14,9 C 0,0 km/h (0 Bft)
26.07.2013 03:45 15,0 C 84 % 1021,6 hPa 0,0 l/m 0,2 km/h (0 Bft) NO 45 12,3 C 14,9 C 0,0 km/h (0 Bft)
26.07.2013 03:50 15,1 C 85 % 1021,6 hPa 0,0 l/m 0,2 km/h (0 Bft) O-SO 112 12,6 C 14,8 C 1,9 km/h (1 Bft)
26.07.2013 03:55 15,2 C 85 % 1021,6 hPa 0,0 l/m 0,3 km/h (0 Bft) NO 45 12,7 C 14,9 C 0,0 km/h (0 Bft)
26.07.2013 04:00 15,0 C 85 % 1021,6 hPa 0,0 l/m 0,2 km/h (0 Bft) N-NO 22 12,5 C 15,0 C 0,0 km/h (0 Bft)
26.07.2013 04:05 14,9 C 85 % 1021,4 hPa 0,0 l/m 0,0 km/h (0 Bft) O-NO 67 12,4 C 14,9 C 0,0 km/h (0 Bft)
26.07.2013 04:10 15,0 C 85 % 1021,4 hPa 0,0 l/m 0,2 km/h (0 Bft) NO 45 12,5 C 14,9 C 0,0 km/h (0 Bft)
26.07.2013 04:15 14,8 C 85 % 1021,4 hPa 0,0 l/m 0,2 km/h (0 Bft) NO 45 12,3 C 14,9 C 0,0 km/h (0 Bft)
26.07.2013 04:20 14,8 C 85 % 1021,4 hPa 0,0 l/m 0,0 km/h (0 Bft) NO 45 12,3 C 14,7 C 0,0 km/h (0 Bft)
26.07.2013 04:25 14,8 C 85 % 1021,4 hPa 0,0 l/m 0,0 km/h (0 Bft) O 90 12,3 C 14,6 C 0,0 km/h (0 Bft)
26.07.2013 04:30 14,8 C 85 % 1021,4 hPa 0,0 l/m 0,2 km/h (0 Bft) NO 45 12,3 C 14,7 C 0,0 km/h (0 Bft)
26.07.2013 04:35 14,8 C 85 % 1021,4 hPa 0,0 l/m 0,0 km/h (0 Bft) NO 45 12,3 C 14,8 C 0,0 km/h (0 Bft)
26.07.2013 04:40 14,9 C 85 % 1021,4 hPa 0,0 l/m 0,2 km/h (0 Bft) N-NO 22 12,4 C 14,9 C 0,0 km/h (0 Bft)
26.07.2013 04:45 14,9 C 85 % 1021,1 hPa 0,0 l/m 0,2 km/h (0 Bft) W-SW 247 12,4 C 14,9 C 0,0 km/h (0 Bft)
26.07.2013 04:50 14,8 C 85 % 1021,1 hPa 0,0 l/m 0,0 km/h (0 Bft) SW 225 12,3 C 14,9 C 0,0 km/h (0 Bft)
26.07.2013 04:55 14,8 C 85 % 1021,1 hPa 0,0 l/m 0,0 km/h (0 Bft) W-SW 247 12,3 C 14,8 C 0,0 km/h (0 Bft)
26.07.2013 05:00 14,5 C 85 % 1021,1 hPa 0,0 l/m 0,0 km/h (0 Bft) W-SW 247 12,0 C 14,6 C 0,0 km/h (0 Bft)
26.07.2013 05:05 14,5 C 85 % 1021,3 hPa 0,0 l/m 0,0 km/h (0 Bft) W-SW 247 12,0 C 14,5 C 0,0 km/h (0 Bft)
26.07.2013 05:10 14,5 C 85 % 1021,3 hPa 0,0 l/m 0,3 km/h (0 Bft) W 270 12,0 C 14,5 C 4,3 km/h (1 Bft)
26.07.2013 05:15 14,5 C 85 % 1021,3 hPa 0,0 l/m 0,3 km/h (0 Bft) SW 225 12,0 C 14,6 C 0,0 km/h (0 Bft)
26.07.2013 05:20 14,5 C 85 % 1021,3 hPa 0,0 l/m 0,2 km/h (0 Bft) W-SW 247 12,0 C 14,6 C 0,0 km/h (0 Bft)
26.07.2013 05:25 14,5 C 85 % 1021,3 hPa 0,0 l/m 0,0 km/h (0 Bft) SW 225 12,0 C 14,6 C 0,0 km/h (0 Bft)
26.07.2013 05:30 14,6 C 85 % 1021,3 hPa 0,0 l/m 0,0 km/h (0 Bft) W-SW 247 12,1 C 14,4 C 0,0 km/h (0 Bft)
26.07.2013 05:35 14,4 C 85 % 1021,3 hPa 0,0 l/m 0,0 km/h (0 Bft) S-SW 202 11,9 C 14,4 C 0,0 km/h (0 Bft)
26.07.2013 05:40 14,3 C 85 % 1021,3 hPa 0,0 l/m 0,0 km/h (0 Bft) W-SW 247 11,8 C 14,2 C 0,0 km/h (0 Bft)
26.07.2013 05:45 14,2 C 85 % 1021,2 hPa 0,0 l/m 0,0 km/h (0 Bft) W-SW 247 11,7 C 14,1 C 0,0 km/h (0 Bft)
26.07.2013 05:50 14,3 C 85 % 1021,2 hPa 0,0 l/m 0,0 km/h (0 Bft) W-SW 247 11,8 C 14,1 C 0,0 km/h (0 Bft)
26.07.2013 05:55 14,2 C 85 % 1021,2 hPa 0,0 l/m 0,0 km/h (0 Bft) W-SW 247 11,7 C 14,1 C 0,0 km/h (0 Bft)
26.07.2013 06:00 14,6 C 86 % 1021,2 hPa 0,0 l/m 0,3 km/h (0 Bft) S-SW 202 12,3 C 14,1 C 2,6 km/h (1 Bft)
26.07.2013 06:05 14,8 C 86 % 1021,6 hPa 0,0 l/m 0,3 km/h (0 Bft) SW 225 12,5 C 14,3 C 0,0 km/h (0 Bft)
26.07.2013 06:10 14,7 C 86 % 1021,6 hPa 0,0 l/m 0,2 km/h (0 Bft) SW 225 12,4 C 14,4 C 0,0 km/h (0 Bft)
26.07.2013 06:15 14,8 C 86 % 1021,6 hPa 0,0 l/m 0,0 km/h (0 Bft) W-SW 247 12,5 C 14,7 C 0,0 km/h (0 Bft)
26.07.2013 06:20 14,8 C 86 % 1021,6 hPa 0,0 l/m 0,0 km/h (0 Bft) S-SW 202 12,5 C 14,9 C 0,0 km/h (0 Bft)
26.07.2013 06:25 15,0 C 86 % 1021,7 hPa 0,0 l/m 0,0 km/h (0 Bft) W-SW 247 12,7 C 14,9 C 0,0 km/h (0 Bft)
26.07.2013 06:30 15,6 C 85 % 1021,7 hPa 0,0 l/m 0,2 km/h (0 Bft) S-SW 202 13,1 C 14,9 C 1,6 km/h (1 Bft)
26.07.2013 06:35 15,5 C 85 % 1021,7 hPa 0,0 l/m 0,6 km/h (0 Bft) S-SW 202 13,0 C 15,0 C 2,4 km/h (1 Bft)
26.07.2013 06:40 15,5 C 85 % 1021,7 hPa 0,0 l/m 0,8 km/h (0 Bft) SW 225 13,0 C 15,4 C 0,0 km/h (0 Bft)
26.07.2013 06:45 15,5 C 86 % 1021,8 hPa 0,0 l/m 0,6 km/h (0 Bft) N 360 13,2 C 16,1 C 3,2 km/h (1 Bft)
26.07.2013 06:50 17,7 C 83 % 1021,8 hPa 0,0 l/m 0,8 km/h (0 Bft) N-NW 337 14,8 C 17,5 C 0,0 km/h (0 Bft)
26.07.2013 06:55 18,8 C 82 % 1021,8 hPa 0,0 l/m 0,8 km/h (0 Bft) N-NO 22 15,7 C 18,3 C 0,0 km/h (0 Bft)
26.07.2013 07:00 20,0 C 79 % 1021,8 hPa 0,0 l/m 0,0 km/h (0 Bft) NO 45 16,2 C 19,6 C 0,0 km/h (0 Bft)
26.07.2013 07:05 19,9 C 76 % 1021,5 hPa 0,0 l/m 0,0 km/h (0 Bft) W-NW 292 15,5 C 20,4 C 0,0 km/h (0 Bft)
26.07.2013 07:10 20,7 C 75 % 1021,5 hPa 0,0 l/m 0,0 km/h (0 Bft) N 360 16,1 C 21,4 C 0,0 km/h (0 Bft)
26.07.2013 07:15 20,8 C 71 % 1021,5 hPa 0,0 l/m 0,0 km/h (0 Bft) NW 315 15,3 C 22,1 C 0,0 km/h (0 Bft)
26.07.2013 07:20 21,4 C 69 % 1021,5 hPa 0,0 l/m 0,0 km/h (0 Bft) N 360 15,5 C 22,6 C 0,0 km/h (0 Bft)
26.07.2013 07:25 22,5 C 69 % 1021,6 hPa 0,0 l/m 0,0 km/h (0 Bft) N 360 16,5 C 23,2 C 0,0 km/h (0 Bft)
26.07.2013 07:30 23,8 C 67 % 1021,6 hPa 0,0 l/m 0,0 km/h (0 Bft) N-NO 22 17,3 C 23,9 C 0,0 km/h (0 Bft)
26.07.2013 07:35 25,0 C 66 % 1021,6 hPa 0,0 l/m 0,0 km/h (0 Bft) N-NW 337 18,2 C 24,6 C 0,0 km/h (0 Bft)
26.07.2013 07:40 24,4 C 62 % 1021,6 hPa 0,0 l/m 0,0 km/h (0 Bft) W-NW 292 16,6 C 25,3 C 0,0 km/h (0 Bft)
26.07.2013 07:45 24,2 C 61 % 1021,6 hPa 0,0 l/m 0,0 km/h (0 Bft) W-NW 292 16,2 C 25,7 C 0,0 km/h (0 Bft)
26.07.2013 07:50 24,6 C 62 % 1021,6 hPa 0,0 l/m 0,0 km/h (0 Bft) N 360 16,8 C 26,5 C 0,0 km/h (0 Bft)
26.07.2013 07:55 25,2 C 59 % 1021,6 hPa 0,0 l/m 0,0 km/h (0 Bft) N-NO 22 16,6 C 26,7 C 0,0 km/h (0 Bft)
26.07.2013 08:00 25,1 C 58 % 1021,6 hPa 0,0 l/m 0,0 km/h (0 Bft) NO 45 16,2 C 26,9 C 0,0 km/h (0 Bft)
26.07.2013 08:05 25,4 C 58 % 1021,7 hPa 0,0 l/m 0,0 km/h (0 Bft) N-NO 22 16,5 C 27,0 C 0,0 km/h (0 Bft)
26.07.2013 08:10 26,2 C 57 % 1021,7 hPa 0,0 l/m 0,0 km/h (0 Bft) W-NW 292 17,0 C 27,4 C 0,0 km/h (0 Bft)
26.07.2013 08:15 26,1 C 55 % 1021,7 hPa 0,0 l/m 0,0 km/h (0 Bft) W-NW 292 16,3 C 27,7 C 0,0 km/h (0 Bft)
26.07.2013 08:20 26,1 C 55 % 1021,7 hPa 0,0 l/m 0,0 km/h (0 Bft) W-NW 292 16,3 C 28,4 C 0,0 km/h (0 Bft)
26.07.2013 08:25 27,0 C 54 % 1021,6 hPa 0,0 l/m 0,0 km/h (0 Bft) W-NW 292 16,9 C 28,8 C 0,0 km/h (0 Bft)
26.07.2013 08:30 28,1 C 54 % 1021,6 hPa 0,0 l/m 0,0 km/h (0 Bft) W-NW 292 17,9 C 29,3 C 0,0 km/h (0 Bft)
26.07.2013 08:35 28,4 C 51 % 1021,6 hPa 0,0 l/m 0,0 km/h (0 Bft) N-NO 22 17,3 C 29,6 C 0,0 km/h (0 Bft)
26.07.2013 08:40 28,3 C 52 % 1021,6 hPa 0,0 l/m 0,3 km/h (0 Bft) W-SW 247 17,5 C 30,1 C 1,9 km/h (1 Bft)
26.07.2013 08:45 29,0 C 50 % 1021,5 hPa 0,0 l/m 0,3 km/h (0 Bft) W-SW 247 17,5 C 29,9 C 0,0 km/h (0 Bft)
26.07.2013 08:50 29,0 C 50 % 1021,5 hPa 0,0 l/m 0,2 km/h (0 Bft) SW 225 17,5 C 30,4 C 0,0 km/h (0 Bft)
26.07.2013 08:55 28,6 C 48 % 1021,5 hPa 0,0 l/m 0,0 km/h (0 Bft) NW 315 16,5 C 30,8 C 0,0 km/h (0 Bft)
26.07.2013 09:00 29,3 C 49 % 1021,5 hPa 0,0 l/m 0,2 km/h (0 Bft) N-NO 22 17,5 C 30,7 C 0,0 km/h (0 Bft)
26.07.2013 09:05 29,6 C 48 % 1021,5 hPa 0,0 l/m 0,5 km/h (0 Bft) W 270 17,4 C 30,7 C 2,4 km/h (1 Bft)
26.07.2013 09:10 29,3 C 48 % 1021,5 hPa 0,0 l/m 1,4 km/h (1 Bft) W-SW 247 17,1 C 30,1 C 1,6 km/h (1 Bft)
26.07.2013 09:15 29,1 C 47 % 1021,5 hPa 0,0 l/m 1,8 km/h (1 Bft) N 360 16,6 C 30,1 C 3,9 km/h (1 Bft)
26.07.2013 09:20 29,4 C 45 % 1021,5 hPa 0,0 l/m 1,9 km/h (1 Bft) NO 45 16,2 C 29,7 C 3,2 km/h (1 Bft)
26.07.2013 09:25 28,9 C 45 % 1021,5 hPa 0,0 l/m 2,7 km/h (1 Bft) N 360 15,8 C 29,5 C 4,8 km/h (1 Bft)
26.07.2013 09:30 28,8 C 44 % 1021,5 hPa 0,0 l/m 2,6 km/h (1 Bft) W-NW 292 15,3 C 29,6 C 6,3 km/h (2 Bft)
26.07.2013 09:35 29,1 C 45 % 1021,5 hPa 0,0 l/m 2,7 km/h (1 Bft) W-NW 292 15,9 C 29,4 C 3,1 km/h (1 Bft)
26.07.2013 09:40 29,1 C 44 % 1021,5 hPa 0,0 l/m 3,4 km/h (1 Bft) W-NW 292 15,6 C 29,3 C 7,7 km/h (2 Bft)
26.07.2013 09:45 28,3 C 43 % 1021,4 hPa 0,0 l/m 3,9 km/h (1 Bft) W-NW 292 14,5 C 29,1 C 3,9 km/h (1 Bft)
26.07.2013 09:50 28,6 C 44 % 1021,4 hPa 0,0 l/m 3,5 km/h (1 Bft) NW 315 15,1 C 29,2 C 5,3 km/h (1 Bft)
26.07.2013 09:55 28,8 C 44 % 1021,4 hPa 0,0 l/m 3,4 km/h (1 Bft) NW 315 15,3 C 29,4 C 6,3 km/h (2 Bft)
26.07.2013 10:00 28,3 C 44 % 1021,4 hPa 0,0 l/m 3,4 km/h (1 Bft) N 360 14,9 C 29,4 C 5,5 km/h (1 Bft)
26.07.2013 10:05 28,5 C 46 % 1021,8 hPa 0,0 l/m 3,4 km/h (1 Bft) N-NW 337 15,7 C 29,8 C 5,6 km/h (1 Bft)
26.07.2013 10:10 28,5 C 43 % 1021,8 hPa 0,0 l/m 3,7 km/h (1 Bft) N-NO 22 14,7 C 29,6 C 7,9 km/h (2 Bft)
26.07.2013 10:15 28,5 C 42 % 1021,8 hPa 0,0 l/m 4,3 km/h (1 Bft) O 90 14,3 C 29,4 C 4,3 km/h (1 Bft)
26.07.2013 10:20 28,9 C 42 % 1021,8 hPa 0,0 l/m 3,7 km/h (1 Bft) NO 45 14,7 C 29,7 C 3,4 km/h (1 Bft)
26.07.2013 10:25 29,1 C 41 % 1022,1 hPa 0,0 l/m 3,4 km/h (1 Bft) N-NW 337 14,5 C 30,0 C 7,4 km/h (2 Bft)
26.07.2013 10:30 29,5 C 42 % 1022,1 hPa 0,0 l/m 3,9 km/h (1 Bft) W-NW 292 15,2 C 29,8 C 4,3 km/h (1 Bft)
26.07.2013 10:35 28,9 C 41 % 1022,1 hPa 0,0 l/m 4,3 km/h (1 Bft) N-NW 337 14,3 C 29,7 C 3,2 km/h (1 Bft)
26.07.2013 10:40 29,1 C 42 % 1022,1 hPa 0,0 l/m 3,7 km/h (1 Bft) NW 315 14,9 C 30,1 C 2,6 km/h (1 Bft)
26.07.2013 10:45 29,6 C 43 % 1022,4 hPa 0,0 l/m 3,1 km/h (1 Bft) N-NW 337 15,7 C 30,5 C 6,4 km/h (2 Bft)
26.07.2013 10:50 29,3 C 41 % 1022,4 hPa 0,0 l/m 3,2 km/h (1 Bft) NW 315 14,7 C 30,5 C 3,5 km/h (1 Bft)
26.07.2013 10:55 29,1 C 39 % 1022,4 hPa 0,0 l/m 3,7 km/h (1 Bft) W-NW 292 13,7 C 30,6 C 6,0 km/h (2 Bft)
26.07.2013 11:00 29,3 C 40 % 1022,4 hPa 0,0 l/m 4,0 km/h (1 Bft) N 360 14,3 C 30,4 C 4,8 km/h (1 Bft)
26.07.2013 11:05 29,0 C 40 % 1022,2 hPa 0,0 l/m 4,5 km/h (1 Bft) W-NW 292 14,0 C 30,3 C 4,5 km/h (1 Bft)
26.07.2013 11:10 29,3 C 39 % 1022,2 hPa 0,0 l/m 5,0 km/h (1 Bft) W-NW 292 13,9 C 29,8 C 9,5 km/h (2 Bft)
26.07.2013 11:15 29,7 C 41 % 1022,2 hPa 0,0 l/m 4,2 km/h (1 Bft) W-NW 292 15,0 C 30,1 C 6,1 km/h (2 Bft)
26.07.2013 11:20 29,7 C 40 % 1022,2 hPa 0,0 l/m 3,1 km/h (1 Bft) NW 315 14,6 C 30,7 C 6,8 km/h (2 Bft)
26.07.2013 11:25 29,9 C 40 % 1022,3 hPa 0,0 l/m 3,5 km/h (1 Bft) NW 315 14,8 C 30,7 C 7,1 km/h (2 Bft)
26.07.2013 11:30 29,5 C 39 % 1022,3 hPa 0,0 l/m 4,5 km/h (1 Bft) NW 315 14,1 C 30,6 C 5,8 km/h (2 Bft)
26.07.2013 11:35 29,1 C 41 % 1022,3 hPa 0,0 l/m 3,9 km/h (1 Bft) N-NO 22 14,5 C 30,4 C 2,1 km/h (1 Bft)
26.07.2013 11:40 29,8 C 41 % 1022,3 hPa 0,0 l/m 2,3 km/h (1 Bft) W-NW 292 15,1 C 31,2 C 3,9 km/h (1 Bft)
26.07.2013 11:45 29,7 C 42 % 1022,1 hPa 0,0 l/m 2,7 km/h (1 Bft) W-SW 247 15,4 C 31,1 C 2,6 km/h (1 Bft)
26.07.2013 11:50 30,5 C 40 % 1022,1 hPa 0,0 l/m 4,2 km/h (1 Bft) W-NW 292 15,3 C 30,7 C 7,9 km/h (2 Bft)
26.07.2013 11:55 30,2 C 39 % 1022,1 hPa 0,0 l/m 3,9 km/h (1 Bft) N-NW 337 14,7 C 30,3 C 3,2 km/h (1 Bft)
26.07.2013 12:00 30,0 C 40 % 1022,1 hPa 0,0 l/m 3,1 km/h (1 Bft) W-SW 247 14,9 C 31,0 C 10,9 km/h (2 Bft)
26.07.2013 12:05 30,3 C 40 % 1022,3 hPa 0,0 l/m 3,1 km/h (1 Bft) W-SW 247 15,2 C 31,2 C 3,4 km/h (1 Bft)
26.07.2013 12:10 30,4 C 39 % 1022,3 hPa 0,0 l/m 3,9 km/h (1 Bft) W-NW 292 14,9 C 31,4 C 6,3 km/h (2 Bft)
26.07.2013 12:15 30,7 C 39 % 1022,3 hPa 0,0 l/m 3,4 km/h (1 Bft) W-NW 292 15,1 C 31,2 C 3,1 km/h (1 Bft)
26.07.2013 12:20 30,3 C 39 % 1022,3 hPa 0,0 l/m 3,1 km/h (1 Bft) W-NW 292 14,8 C 31,9 C 5,5 km/h (1 Bft)
26.07.2013 12:25 31,0 C 39 % 1022,3 hPa 0,0 l/m 2,7 km/h (1 Bft) N-NO 22 15,4 C 31,8 C 5,0 km/h (1 Bft)
26.07.2013 12:30 30,9 C 39 % 1022,3 hPa 0,0 l/m 2,6 km/h (1 Bft) NO 45 15,3 C 32,4 C 2,3 km/h (1 Bft)
26.07.2013 12:35 30,4 C 40 % 1022,3 hPa 0,0 l/m 2,7 km/h (1 Bft) N-NO 22 15,3 C 32,4 C 2,3 km/h (1 Bft)
26.07.2013 12:40 30,2 C 43 % 1022,3 hPa 0,0 l/m 2,9 km/h (1 Bft) N-NW 337 16,2 C 32,8 C 5,3 km/h (1 Bft)
26.07.2013 12:45 30,1 C 41 % 1022,4 hPa 0,0 l/m 2,7 km/h (1 Bft) N-NO 22 15,4 C 32,8 C 1,6 km/h (1 Bft)
26.07.2013 12:50 30,7 C 41 % 1022,4 hPa 0,0 l/m 3,2 km/h (1 Bft) S-SW 202 15,9 C 32,9 C 4,5 km/h (1 Bft)
26.07.2013 12:55 30,4 C 41 % 1022,4 hPa 0,0 l/m 2,7 km/h (1 Bft) O 90 15,6 C 33,0 C 2,7 km/h (1 Bft)
26.07.2013 13:00 30,7 C 42 % 1022,4 hPa 0,0 l/m 3,1 km/h (1 Bft) W-NW 292 16,3 C 33,0 C 3,2 km/h (1 Bft)
26.07.2013 13:05 30,6 C 39 % 1022,1 hPa 0,0 l/m 3,5 km/h (1 Bft) N-NW 337 15,0 C 32,8 C 3,7 km/h (1 Bft)
26.07.2013 13:10 30,5 C 40 % 1022,1 hPa 0,0 l/m 3,1 km/h (1 Bft) NO 45 15,3 C 32,8 C 0,0 km/h (0 Bft)
26.07.2013 13:15 30,0 C 39 % 1022,1 hPa 0,0 l/m 3,1 km/h (1 Bft) NO 45 14,5 C 33,1 C 4,8 km/h (1 Bft)
26.07.2013 13:20 30,6 C 39 % 1022,1 hPa 0,0 l/m 2,9 km/h (1 Bft) SO 135 15,0 C 32,8 C 3,1 km/h (1 Bft)
26.07.2013 13:25 31,0 C 39 % 1022,1 hPa 0,0 l/m 3,2 km/h (1 Bft) W 270 15,4 C 33,2 C 9,5 km/h (2 Bft)
26.07.2013 13:30 30,5 C 41 % 1022,1 hPa 0,0 l/m 4,3 km/h (1 Bft) W-NW 292 15,7 C 32,2 C 3,4 km/h (1 Bft)
26.07.2013 13:35 30,4 C 42 % 1022,1 hPa 0,0 l/m 4,3 km/h (1 Bft) W-NW 292 16,0 C 32,4 C 3,4 km/h (1 Bft)
26.07.2013 13:40 30,7 C 42 % 1022,1 hPa 0,0 l/m 3,7 km/h (1 Bft) NW 315 16,3 C 32,4 C 5,3 km/h (1 Bft)
26.07.2013 13:45 30,4 C 39 % 1022,1 hPa 0,0 l/m 4,5 km/h (1 Bft) N 360 14,9 C 32,4 C 2,3 km/h (1 Bft)
26.07.2013 13:50 29,9 C 40 % 1022,1 hPa 0,0 l/m 4,3 km/h (1 Bft) N-NW 337 14,8 C 32,5 C 4,8 km/h (1 Bft)
26.07.2013 13:55 30,3 C 40 % 1022,1 hPa 0,0 l/m 3,4 km/h (1 Bft) W-SW 247 15,2 C 32,5 C 4,0 km/h (1 Bft)
26.07.2013 14:00 31,2 C 38 % 1022,1 hPa 0,0 l/m 2,7 km/h (1 Bft) SO 135 15,2 C 33,0 C 2,4 km/h (1 Bft)
26.07.2013 14:05 31,2 C 36 % 1022,1 hPa 0,0 l/m 2,9 km/h (1 Bft) W-SW 247 14,3 C 33,5 C 2,1 km/h (1 Bft)
26.07.2013 14:10 31,4 C 37 % 1022,1 hPa 0,0 l/m 2,6 km/h (1 Bft) SW 225 14,9 C 33,8 C 2,9 km/h (1 Bft)
26.07.2013 14:13 30,9 C 37 % 1022,1 hPa 0,0 l/m 2,9 km/h (1 Bft) W-SW 247 14,5 C 34,0 C 5,3 km/h (1 Bft)
26.07.2013 14:15 30,9 C 37 % 1022,1 hPa 0,0 l/m 2,9 km/h (1 Bft) W-SW 247 14,5 C 34,0 C 5,3 km/h (1 Bft)
26.07.2013 14:20 31,3 C 36 % 1022,1 hPa 0,0 l/m 4,2 km/h (1 Bft) W-SW 247 14,4 C 33,3 C 7,2 km/h (2 Bft)
26.07.2013 14:25 31,1 C 36 % 1021,9 hPa 0,0 l/m 4,5 km/h (1 Bft) N-NW 337 14,2 C 33,0 C 7,9 km/h (2 Bft)
26.07.2013 14:30 31,1 C 37 % 1021,9 hPa 0,0 l/m 4,0 km/h (1 Bft) NW 315 14,7 C 32,9 C 0,0 km/h (0 Bft)
26.07.2013 14:35 31,3 C 36 % 1021,9 hPa 0,0 l/m 3,2 km/h (1 Bft) W-SW 247 14,4 C 33,5 C 4,2 km/h (1 Bft)
26.07.2013 14:40 31,5 C 35 % 1021,9 hPa 0,0 l/m 2,3 km/h (1 Bft) S-SW 202 14,2 C 33,6 C 2,6 km/h (1 Bft)
26.07.2013 14:45 31,2 C 39 % 1021,8 hPa 0,0 l/m 3,1 km/h (1 Bft) NO 45 15,6 C 33,8 C 5,5 km/h (1 Bft)
26.07.2013 14:50 31,3 C 37 % 1021,8 hPa 0,0 l/m 3,2 km/h (1 Bft) O-SO 112 14,8 C 33,8 C 3,1 km/h (1 Bft)
26.07.2013 14:55 31,6 C 36 % 1021,8 hPa 0,0 l/m 4,0 km/h (1 Bft) S-SO 157 14,7 C 33,9 C 5,3 km/h (1 Bft)
26.07.2013 15:00 32,2 C 36 % 1021,8 hPa 0,0 l/m 4,8 km/h (1 Bft) S 180 15,2 C 33,7 C 6,1 km/h (2 Bft)
26.07.2013 15:05 31,2 C 35 % 1021,8 hPa 0,0 l/m 3,7 km/h (1 Bft) N-NO 22 13,9 C 33,9 C 2,9 km/h (1 Bft)
26.07.2013 15:10 32,5 C 35 % 1021,8 hPa 0,0 l/m 1,9 km/h (1 Bft) W-SW 247 15,0 C 34,9 C 5,1 km/h (1 Bft)
26.07.2013 15:15 32,5 C 36 % 1021,8 hPa 0,0 l/m 2,6 km/h (1 Bft) W-SW 247 15,5 C 35,0 C 4,5 km/h (1 Bft)
26.07.2013 15:20 31,8 C 35 % 1021,8 hPa 0,0 l/m 4,0 km/h (1 Bft) S-SW 202 14,4 C 34,6 C 3,5 km/h (1 Bft)
26.07.2013 15:25 32,1 C 34 % 1021,8 hPa 0,0 l/m 3,9 km/h (1 Bft) W-SW 247 14,2 C 34,5 C 4,3 km/h (1 Bft)
26.07.2013 15:30 31,3 C 35 % 1021,8 hPa 0,0 l/m 3,7 km/h (1 Bft) W-NW 292 14,0 C 34,6 C 4,2 km/h (1 Bft)
26.07.2013 15:35 31,8 C 33 % 1021,8 hPa 0,0 l/m 4,3 km/h (1 Bft) N-NO 22 13,5 C 34,3 C 8,4 km/h (2 Bft)
26.07.2013 15:40 31,1 C 34 % 1021,8 hPa 0,0 l/m 4,0 km/h (1 Bft) W-NW 292 13,4 C 34,3 C 2,1 km/h (1 Bft)
26.07.2013 15:45 31,4 C 35 % 1021,6 hPa 0,0 l/m 3,2 km/h (1 Bft) S-SO 157 14,1 C 34,7 C 2,6 km/h (1 Bft)
26.07.2013 15:50 31,6 C 34 % 1021,6 hPa 0,0 l/m 3,2 km/h (1 Bft) S-SW 202 13,8 C 34,7 C 2,6 km/h (1 Bft)
26.07.2013 15:55 32,1 C 35 % 1021,6 hPa 0,0 l/m 4,0 km/h (1 Bft) W-SW 247 14,7 C 34,5 C 4,7 km/h (1 Bft)
26.07.2013 16:00 31,9 C 33 % 1021,6 hPa 0,0 l/m 3,5 km/h (1 Bft) W-NW 292 13,6 C 34,7 C 2,4 km/h (1 Bft)
26.07.2013 16:05 31,7 C 33 % 1021,2 hPa 0,0 l/m 2,3 km/h (1 Bft) O-SO 112 13,4 C 35,2 C 2,7 km/h (1 Bft)
26.07.2013 16:10 32,0 C 34 % 1021,2 hPa 0,0 l/m 1,6 km/h (1 Bft) SO 135 14,1 C 36,1 C 1,9 km/h (1 Bft)
26.07.2013 16:15 32,0 C 33 % 1021,2 hPa 0,0 l/m 1,9 km/h (1 Bft) W-SW 247 13,7 C 36,6 C 4,5 km/h (1 Bft)
26.07.2013 16:20 31,4 C 32 % 1021,2 hPa 0,0 l/m 3,2 km/h (1 Bft) N 360 12,7 C 35,8 C 2,7 km/h (1 Bft)
26.07.2013 16:25 31,0 C 33 % 1021,3 hPa 0,0 l/m 3,7 km/h (1 Bft) W-NW 292 12,8 C 35,7 C 4,3 km/h (1 Bft)
26.07.2013 16:30 30,7 C 34 % 1021,3 hPa 0,0 l/m 3,7 km/h (1 Bft) N-NW 337 13,0 C 35,6 C 6,6 km/h (2 Bft)
26.07.2013 16:35 30,7 C 34 % 1021,3 hPa 0,0 l/m 4,8 km/h (1 Bft) NW 315 13,0 C 35,1 C 6,6 km/h (2 Bft)
26.07.2013 16:40 30,7 C 34 % 1021,3 hPa 0,0 l/m 4,7 km/h (1 Bft) W-NW 292 13,0 C 34,5 C 4,0 km/h (1 Bft)
26.07.2013 16:45 30,8 C 35 % 1021,3 hPa 0,0 l/m 3,1 km/h (1 Bft) W-NW 292 13,5 C 34,7 C 1,9 km/h (1 Bft)
26.07.2013 16:50 30,3 C 37 % 1021,3 hPa 0,0 l/m 2,7 km/h (1 Bft) W 270 14,0 C 35,3 C 4,8 km/h (1 Bft)
26.07.2013 16:55 29,7 C 36 % 1021,3 hPa 0,0 l/m 2,9 km/h (1 Bft) W-NW 292 13,0 C 35,4 C 3,4 km/h (1 Bft)
26.07.2013 17:00 29,2 C 37 % 1021,3 hPa 0,0 l/m 3,1 km/h (1 Bft) N-NW 337 13,0 C 35,8 C 3,4 km/h (1 Bft)
26.07.2013 17:05 29,1 C 37 % 1021,2 hPa 0,0 l/m 2,7 km/h (1 Bft) N-NW 337 12,9 C 35,8 C 5,3 km/h (1 Bft)
26.07.2013 17:10 28,7 C 40 % 1021,2 hPa 0,0 l/m 3,1 km/h (1 Bft) NO 45 13,7 C 35,7 C 5,3 km/h (1 Bft)
26.07.2013 17:15 28,6 C 40 % 1021,2 hPa 0,0 l/m 3,2 km/h (1 Bft) NW 315 13,7 C 35,8 C 2,6 km/h (1 Bft)
26.07.2013 17:20 28,6 C 43 % 1021,2 hPa 0,0 l/m 2,9 km/h (1 Bft) N-NW 337 14,8 C 35,5 C 0,0 km/h (0 Bft)
26.07.2013 17:25 28,5 C 40 % 1020,9 hPa 0,0 l/m 3,2 km/h (1 Bft) N 360 13,6 C 35,8 C 8,9 km/h (2 Bft)
26.07.2013 17:30 28,6 C 40 % 1020,9 hPa 0,0 l/m 3,2 km/h (1 Bft) N-NO 22 13,7 C 35,8 C 4,0 km/h (1 Bft)
26.07.2013 17:35 28,5 C 40 % 1020,9 hPa 0,0 l/m 3,1 km/h (1 Bft) N 360 13,6 C 36,0 C 4,7 km/h (1 Bft)
26.07.2013 17:40 28,4 C 40 % 1021,0 hPa 0,0 l/m 3,9 km/h (1 Bft) N 360 13,5 C 35,8 C 4,7 km/h (1 Bft)
26.07.2013 17:45 28,6 C 39 % 1021,0 hPa 0,0 l/m 4,0 km/h (1 Bft) N-NW 337 13,3 C 35,3 C 4,3 km/h (1 Bft)
26.07.2013 17:50 28,6 C 39 % 1021,0 hPa 0,0 l/m 4,0 km/h (1 Bft) N 360 13,3 C 35,2 C 3,9 km/h (1 Bft)
26.07.2013 17:55 28,3 C 40 % 1021,0 hPa 0,0 l/m 4,0 km/h (1 Bft) W-NW 292 13,4 C 34,9 C 7,4 km/h (2 Bft)
26.07.2013 18:00 27,9 C 41 % 1020,8 hPa 0,0 l/m 4,0 km/h (1 Bft) N-NW 337 13,4 C 33,9 C 1,8 km/h (1 Bft)
26.07.2013 18:05 27,2 C 42 % 1020,8 hPa 0,0 l/m 2,7 km/h (1 Bft) NO 45 13,2 C 31,9 C 2,4 km/h (1 Bft)
26.07.2013 18:10 26,7 C 45 % 1020,8 hPa 0,0 l/m 2,1 km/h (1 Bft) NW 315 13,8 C 30,9 C 1,9 km/h (1 Bft)
26.07.2013 18:15 26,9 C 43 % 1020,8 hPa 0,0 l/m 1,9 km/h (1 Bft) NO 45 13,2 C 30,2 C 0,0 km/h (0 Bft)
26.07.2013 18:20 27,2 C 41 % 1020,4 hPa 0,0 l/m 2,3 km/h (1 Bft) NO 45 12,8 C 30,2 C 2,6 km/h (1 Bft)
26.07.2013 18:25 27,6 C 43 % 1020,4 hPa 0,0 l/m 1,3 km/h (1 Bft) NW 315 13,9 C 32,4 C 0,0 km/h (0 Bft)
26.07.2013 18:30 27,4 C 44 % 1020,4 hPa 0,0 l/m 0,6 km/h (0 Bft) NO 45 14,0 C 32,5 C 2,7 km/h (1 Bft)
26.07.2013 18:35 27,7 C 44 % 1020,4 hPa 0,0 l/m 1,1 km/h (1 Bft) N-NO 22 14,3 C 33,3 C 1,8 km/h (1 Bft)
26.07.2013 18:40 27,8 C 42 % 1020,3 hPa 0,0 l/m 1,4 km/h (1 Bft) NO 45 13,7 C 34,3 C 2,4 km/h (1 Bft)
26.07.2013 18:45 28,0 C 41 % 1020,3 hPa 0,0 l/m 1,9 km/h (1 Bft) N 360 13,5 C 34,7 C 2,3 km/h (1 Bft)
26.07.2013 18:50 28,0 C 39 % 1020,3 hPa 0,0 l/m 2,7 km/h (1 Bft) N-NW 337 12,7 C 34,9 C 4,5 km/h (1 Bft)
26.07.2013 18:55 27,9 C 40 % 1020,3 hPa 0,0 l/m 2,4 km/h (1 Bft) N-NO 22 13,0 C 34,9 C 0,0 km/h (0 Bft)
26.07.2013 19:00 27,7 C 39 % 1019,9 hPa 0,0 l/m 2,3 km/h (1 Bft) N 360 12,5 C 35,0 C 5,0 km/h (1 Bft)
26.07.2013 19:05 27,5 C 40 % 1019,9 hPa 0,0 l/m 3,1 km/h (1 Bft) N 360 12,7 C 34,5 C 4,0 km/h (1 Bft)
26.07.2013 19:10 27,4 C 40 % 1019,9 hPa 0,0 l/m 3,2 km/h (1 Bft) W-NW 292 12,6 C 34,0 C 1,8 km/h (1 Bft)
26.07.2013 19:15 27,2 C 40 % 1019,9 hPa 0,0 l/m 1,8 km/h (1 Bft) N 360 12,4 C 34,1 C 1,9 km/h (1 Bft)
26.07.2013 19:20 27,1 C 39 % 1019,8 hPa 0,0 l/m 1,0 km/h (0 Bft) S-SW 202 11,9 C 34,2 C 0,0 km/h (0 Bft)
26.07.2013 19:25 26,9 C 40 % 1019,8 hPa 0,0 l/m 1,6 km/h (1 Bft) O 90 12,1 C 34,2 C 2,1 km/h (1 Bft)
26.07.2013 19:30 26,7 C 40 % 1019,8 hPa 0,0 l/m 1,4 km/h (1 Bft) SO 135 12,0 C 34,0 C 0,0 km/h (0 Bft)
26.07.2013 19:35 26,5 C 41 % 1019,8 hPa 0,0 l/m 0,6 km/h (0 Bft) S 180 12,2 C 34,1 C 2,7 km/h (1 Bft)
26.07.2013 19:40 26,5 C 42 % 1019,7 hPa 0,0 l/m 0,8 km/h (0 Bft) NO 45 12,5 C 33,9 C 2,3 km/h (1 Bft)
26.07.2013 19:45 26,3 C 41 % 1019,7 hPa 0,0 l/m 2,1 km/h (1 Bft) NO 45 12,0 C 32,9 C 2,1 km/h (1 Bft)
26.07.2013 19:50 26,3 C 40 % 1019,7 hPa 0,0 l/m 2,3 km/h (1 Bft) O-NO 67 11,6 C 32,4 C 2,1 km/h (1 Bft)
26.07.2013 19:55 26,2 C 40 % 1019,7 hPa 0,0 l/m 2,4 km/h (1 Bft) NO 45 11,5 C 31,6 C 4,2 km/h (1 Bft)
26.07.2013 20:00 26,1 C 41 % 1019,6 hPa 0,0 l/m 2,7 km/h (1 Bft) NO 45 11,8 C 31,1 C 2,9 km/h (1 Bft)
26.07.2013 20:05 25,8 C 43 % 1019,6 hPa 0,0 l/m 2,9 km/h (1 Bft) O 90 12,3 C 30,3 C 2,7 km/h (1 Bft)
26.07.2013 20:10 25,5 C 43 % 1019,6 hPa 0,0 l/m 2,7 km/h (1 Bft) NO 45 12,0 C 29,7 C 3,2 km/h (1 Bft)
26.07.2013 20:15 25,1 C 45 % 1019,6 hPa 0,0 l/m 2,1 km/h (1 Bft) O-NO 67 12,3 C 28,3 C 2,1 km/h (1 Bft)
26.07.2013 20:20 24,8 C 46 % 1019,7 hPa 0,0 l/m 2,3 km/h (1 Bft) NO 45 12,4 C 27,0 C 2,3 km/h (1 Bft)
26.07.2013 20:25 24,7 C 47 % 1019,7 hPa 0,0 l/m 2,9 km/h (1 Bft) NO 45 12,6 C 26,3 C 3,5 km/h (1 Bft)
26.07.2013 20:30 24,7 C 47 % 1019,7 hPa 0,0 l/m 2,9 km/h (1 Bft) N-NO 22 12,6 C 25,9 C 2,6 km/h (1 Bft)
26.07.2013 20:35 24,6 C 49 % 1019,7 hPa 0,0 l/m 1,8 km/h (1 Bft) N-NO 22 13,2 C 26,1 C 1,9 km/h (1 Bft)
26.07.2013 20:40 24,3 C 50 % 1019,8 hPa 0,0 l/m 1,9 km/h (1 Bft) O 90 13,2 C 26,0 C 3,5 km/h (1 Bft)
26.07.2013 20:45 23,8 C 52 % 1019,8 hPa 0,0 l/m 2,6 km/h (1 Bft) O 90 13,3 C 25,6 C 3,7 km/h (1 Bft)
26.07.2013 20:50 23,7 C 53 % 1019,8 hPa 0,0 l/m 2,4 km/h (1 Bft) O-NO 67 13,5 C 25,1 C 3,7 km/h (1 Bft)
26.07.2013 20:55 23,6 C 54 % 1019,8 hPa 0,0 l/m 2,7 km/h (1 Bft) O-NO 67 13,7 C 24,2 C 4,3 km/h (1 Bft)
26.07.2013 21:00 23,6 C 54 % 1019,8 hPa 0,0 l/m 2,9 km/h (1 Bft) O 90 13,7 C 23,9 C 2,7 km/h (1 Bft)
26.07.2013 21:05 23,4 C 54 % 1019,8 hPa 0,0 l/m 3,1 km/h (1 Bft) NO 45 13,6 C 23,5 C 4,0 km/h (1 Bft)
26.07.2013 21:10 23,2 C 56 % 1019,8 hPa 0,0 l/m 3,1 km/h (1 Bft) NO 45 13,9 C 23,5 C 3,9 km/h (1 Bft)
26.07.2013 21:15 22,8 C 58 % 1019,8 hPa 0,0 l/m 3,4 km/h (1 Bft) O-NO 67 14,1 C 23,1 C 3,5 km/h (1 Bft)
26.07.2013 21:20 22,7 C 58 % 1020,0 hPa 0,0 l/m 3,2 km/h (1 Bft) O-SO 112 14,0 C 22,8 C 3,9 km/h (1 Bft)
26.07.2013 21:25 22,7 C 58 % 1020,0 hPa 0,0 l/m 3,1 km/h (1 Bft) S 180 14,0 C 22,6 C 3,7 km/h (1 Bft)
26.07.2013 21:30 22,5 C 58 % 1020,0 hPa 0,0 l/m 3,2 km/h (1 Bft) O 90 13,8 C 22,5 C 3,4 km/h (1 Bft)
26.07.2013 21:35 22,2 C 59 % 1020,0 hPa 0,0 l/m 3,9 km/h (1 Bft) O 90 13,8 C 22,3 C 3,7 km/h (1 Bft)
26.07.2013 21:40 21,7 C 60 % 1020,0 hPa 0,0 l/m 2,7 km/h (1 Bft) O 90 13,6 C 21,9 C 0,0 km/h (0 Bft)
26.07.2013 21:45 20,6 C 63 % 1020,0 hPa 0,0 l/m 0,8 km/h (0 Bft) O 90 13,3 C 21,2 C 0,0 km/h (0 Bft)
26.07.2013 21:50 20,8 C 64 % 1020,0 hPa 0,0 l/m 0,8 km/h (0 Bft) O 90 13,7 C 20,8 C 2,6 km/h (1 Bft)
26.07.2013 21:55 20,4 C 64 % 1020,0 hPa 0,0 l/m 1,3 km/h (1 Bft) O-SO 112 13,4 C 20,5 C 0,0 km/h (0 Bft)
26.07.2013 22:00 20,2 C 66 % 1020,0 hPa 0,0 l/m 1,0 km/h (0 Bft) O 90 13,6 C 20,2 C 0,0 km/h (0 Bft)
26.07.2013 22:05 20,7 C 65 % 1020,0 hPa 0,0 l/m 1,4 km/h (1 Bft) O 90 13,9 C 19,8 C 3,9 km/h (1 Bft)
26.07.2013 22:10 20,6 C 65 % 1020,0 hPa 0,0 l/m 2,6 km/h (1 Bft) O 90 13,8 C 19,8 C 3,2 km/h (1 Bft)
26.07.2013 22:15 19,8 C 66 % 1020,0 hPa 0,0 l/m 1,6 km/h (1 Bft) SO 135 13,3 C 19,7 C 0,0 km/h (0 Bft)
26.07.2013 22:20 19,2 C 68 % 1019,8 hPa 0,0 l/m 0,6 km/h (0 Bft) O-SO 112 13,1 C 19,4 C 0,0 km/h (0 Bft)
26.07.2013 22:25 18,9 C 68 % 1019,8 hPa 0,0 l/m 0,0 km/h (0 Bft) O 90 12,9 C 18,8 C 0,0 km/h (0 Bft)
26.07.2013 22:30 18,8 C 68 % 1019,8 hPa 0,0 l/m 0,0 km/h (0 Bft) O 90 12,8 C 18,6 C 0,0 km/h (0 Bft)
26.07.2013 22:35 18,5 C 69 % 1019,8 hPa 0,0 l/m 0,0 km/h (0 Bft) SO 135 12,7 C 18,4 C 0,0 km/h (0 Bft)
26.07.2013 22:40 18,3 C 70 % 1019,9 hPa 0,0 l/m 0,0 km/h (0 Bft) O-SO 112 12,7 C 18,3 C 0,0 km/h (0 Bft)
26.07.2013 22:45 18,3 C 71 % 1019,9 hPa 0,0 l/m 0,0 km/h (0 Bft) NO 45 12,9 C 18,0 C 0,0 km/h (0 Bft)
26.07.2013 22:50 18,2 C 72 % 1019,9 hPa 0,0 l/m 0,0 km/h (0 Bft) NO 45 13,1 C 17,9 C 0,0 km/h (0 Bft)
26.07.2013 22:55 18,1 C 72 % 1019,9 hPa 0,0 l/m 0,0 km/h (0 Bft) O-SO 112 13,0 C 17,8 C 0,0 km/h (0 Bft)
26.07.2013 23:00 18,1 C 72 % 1019,6 hPa 0,0 l/m 0,0 km/h (0 Bft) SO 135 13,0 C 17,8 C 0,0 km/h (0 Bft)
26.07.2013 23:05 18,1 C 72 % 1019,6 hPa 0,0 l/m 0,0 km/h (0 Bft) SO 135 13,0 C 17,7 C 0,0 km/h (0 Bft)
26.07.2013 23:10 18,3 C 73 % 1019,6 hPa 0,0 l/m 0,0 km/h (0 Bft) SO 135 13,4 C 17,7 C 0,0 km/h (0 Bft)
26.07.2013 23:15 17,9 C 73 % 1019,6 hPa 0,0 l/m 0,0 km/h (0 Bft) W 270 13,0 C 17,8 C 0,0 km/h (0 Bft)
26.07.2013 23:20 17,8 C 73 % 1019,4 hPa 0,0 l/m 0,0 km/h (0 Bft) NW 315 12,9 C 17,7 C 0,0 km/h (0 Bft)
26.07.2013 23:25 17,8 C 74 % 1019,4 hPa 0,0 l/m 0,0 km/h (0 Bft) W-NW 292 13,1 C 17,7 C 0,0 km/h (0 Bft)
26.07.2013 23:30 17,8 C 74 % 1019,4 hPa 0,0 l/m 0,2 km/h (0 Bft) N 360 13,1 C 17,8 C 0,0 km/h (0 Bft)
26.07.2013 23:35 17,8 C 73 % 1019,4 hPa 0,0 l/m 0,3 km/h (0 Bft) W-SW 247 12,9 C 18,0 C 2,7 km/h (1 Bft)
26.07.2013 23:40 17,8 C 73 % 1019,2 hPa 0,0 l/m 0,2 km/h (0 Bft) S 180 12,9 C 18,1 C 0,0 km/h (0 Bft)
26.07.2013 23:45 17,8 C 73 % 1019,2 hPa 0,0 l/m 0,2 km/h (0 Bft) O-SO 112 12,9 C 18,1 C 0,0 km/h (0 Bft)
26.07.2013 23:50 17,7 C 73 % 1019,2 hPa 0,0 l/m 0,0 km/h (0 Bft) S 180 12,8 C 18,0 C 0,0 km/h (0 Bft)
26.07.2013 23:55 17,5 C 74 % 1019,2 hPa 0,0 l/m 0,0 km/h (0 Bft) S-SW 202 12,8 C 17,8 C 0,0 km/h (0 Bft)
_ Min-Zeit 05:55 16:20 23:55 - 23:55 - - 19:55 06:00 23:55
Minimum _ 14,2 C 32 % 1019,2 hPa - 0,0 km/h (0 Bft) - - 11,5 C 14,1 C 0,0 km/h (0 Bft)
_ Max-Zeit 15:15 06:45 13:00 23:55 11:10 - - 07:35 16:15 12:00
Maximum _ 32,5 C 86 % 1022,4 hPa 0,0 l/m 5,0 km/h
W-NW (1 Bft)
- - 18,2 C 36,6 C 10,9 km/h
W-SW (2 Bft)
Durchschnitt _ 23,8 C 57 % 1021,3 hPa #0,0 l/m 1,8 km/h (1 Bft) W-NW - 13,9 C 25,4 C 2,3 km/h (1 Bft)